This demonstration page uses our WeatherBlox Daily Observations layout. Learn more.

Left ArrowRight Arrow

44.8408, -93.29828

Hourly Observations for July 19, 2022

Temp ( °F °C ) Dew Point ( °F °C ) Humidity (%) Winds ( mph kmh ) Pressure ( in mb ) Visibility ( mi km ) Precip ( " mm )
12:53 am 00:53 Mostly Clear 81 27.2 68 20 65 65 SSW 12 19 29.72 1007 10 16 0.00 0.00
1:53 am 01:53 Partly Cloudy 81 27.2 68 20 65 65 SSW 10 17 29.71 1006 10 16 0.00 0.00
2:53 am 02:53 Mostly Cloudy 80 26.7 68 20 67 67 SSW 18 30 29.69 1005 10 16 0.00 0.00
3:53 am 03:53 Mostly Cloudy 79 26.1 67 19.4 67 67 SSW 13 20 29.68 1005 10 16 0.00 0.00
4:53 am 04:53 Mostly Cloudy 78 25.6 67 19.4 69 69 SSW 9 15 29.67 1005 10 16 0.00 0.00
5:53 am 05:53 Cloudy 78 25.6 66 18.9 67 67 SW 8 13 29.70 1006 10 16 0.00 0.00
6:53 am 06:53 Cloudy 77 25 65 18.3 66 66 SSW 13 20 29.67 1005 10 16 0.00 0.00
7:19 am 07:19 Mostly Cloudy 78 25.6 64 17.8 62 62 SSW 18 30 29.61 1003 10 16 0.00 0.00
7:53 am 07:53 Mostly Cloudy 79 26.1 63 17.2 58 58 S 13 20 29.60 1003 10 16 0.00 0.00
8:53 am 08:53 Mostly Cloudy 82 27.8 59 15 46 46 SSW 17 28 29.59 1002 10 16 0.00 0.00
9:53 am 09:53 Mostly Cloudy 82 27.8 60 15.6 47 47 S 15 24 29.56 1001 10 16 0.00 0.00
10:53 am 10:53 Mostly Cloudy 88 31.1 57 13.9 35 35 SSW 17 28 29.55 1001 10 16 0.00 0.00
11:53 am 11:53 Partly Cloudy 90 32.2 59 15 35 35 SSW 25 41 29.54 1000 10 16 0.00 0.00
12:53 pm 12:53 Mostly Sunny 89 31.7 63 17.2 42 42 SW 21 33 29.54 1000 10 16 0.00 0.00
1:53 pm 13:53 Mostly Cloudy 88 31.1 66 18.9 48 48 SW 23 37 29.53 1000 10 16 0.00 0.00
2:53 pm 14:53 Cloudy 87 30.6 67 19.4 51 51 SW 17 28 29.52 1000 10 16 0.00 0.00
3:53 pm 15:53 Cloudy 88 31.1 68 20 52 52 SW 16 26 29.51 999 10 16 0.00 0.00
4:53 pm 16:53 Mostly Sunny 88 31.1 71 21.7 57 57 W 16 26 29.50 999 10 16 0.00 0.00
5:53 pm 17:53 Mostly Sunny 88 31.1 62 16.7 42 42 W 18 30 29.52 1000 10 16 0.00 0.00
6:53 pm 18:53 Mostly Sunny 87 30.6 54 12.2 32 32 W 18 30 29.52 1000 10 16 0.00 0.00
7:53 pm 19:53 Mostly Sunny 84 28.9 51 10.6 32 32 WSW 13 20 29.53 1000 10 16 0.00 0.00
8:53 pm 20:53 Mostly Sunny 81 27.2 49 9.4 33 33 W 15 24 29.54 1000 10 16 0.00 0.00
9:53 pm 21:53 Mostly Clear 79 26.1 49 9.4 35 35 SW 10 17 29.53 1000 10 16 0.00 0.00
10:53 pm 22:53 Mostly Clear 77 25 52 11.1 42 42 SW 10 17 29.52 1000 10 16 0.00 0.00
11:53 pm 23:53 Mostly Clear 76 24.4 55 12.8 48 48 WSW 14 22 29.52 1000 10 16 0.00 0.00

Powered by AerisWeather